Date,TemperatureHighF,TemperatureAvgF,TemperatureLowF,DewpointHighF,DewpointAvgF,DewpointLowF,HumidityHigh,HumidityAvg,HumidityLow,PressureMaxIn,PressureMinIn,WindSpeedMaxMPH,WindSpeedAvgMPH,GustSpeedMaxMPH,PrecipitationSumIn
2013-5-1,47.5,38.7,34.1,32.3,25.5,19.7,71,59,52,30.55,30.03,13,6,25,0.00
2013-5-2,45.2,37.0,29.6,26.7,24.5,22.6,81,62,43,30.64,30.48,16,5,26,0.00
2013-5-3,48.7,37.5,25.5,28.2,23.0,20.4,83,58,35,30.48,30.18,14,5,22,0.00
2013-5-4,40.6,37.5,35.0,37.6,34.7,28.6,96,90,63,30.22,30.15,12,4,19,0.03
2013-5-5,50.5,43.5,37.8,42.8,40.1,37.3,99,88,74,30.21,30.13,7,2,11,0.00
2013-5-6,69.6,54.6,42.0,49.5,44.5,39.6,91,71,46,30.15,30.03,6,1,12,0.00
2013-5-7,78.0,62.3,42.6,49.1,43.2,39.3,91,55,27,30.08,29.93,9,1,14,0.00
2013-5-8,64.0,58.3,54.9,57.1,53.4,46.8,96,85,55,30.03,29.96,7,1,11,0.36
2013-5-9,58.4,54.0,47.2,54.1,50.1,37.1,96,87,68,30.15,30.00,10,4,17,0.19
2013-5-10,68.8,52.4,37.4,48.4,33.9,23.7,81,53,23,30.16,29.91,14,3,28,0.00
2013-5-11,52.6,45.3,37.7,34.7,24.5,16.3,72,47,25,30.25,30.05,17,6,28,0.00
2013-5-12,61.0,47.6,31.3,25.7,21.8,17.9,68,39,19,30.26,30.09,8,2,16,0.00
2013-5-13,86.0,65.6,46.0,51.7,36.9,21.8,48,35,22,30.09,29.65,14,3,25,0.00
2013-5-14,93.8,73.7,54.6,52.9,44.1,31.7,66,38,15,29.81,29.53,11,3,25,0.00
2013-5-15,80.9,64.8,50.8,53.3,46.1,40.9,75,53,25,29.96,29.81,7,2,14,0.00
2013-5-16,85.0,69.8,51.7,52.5,43.5,38.3,76,44,20,29.92,29.80,7,1,14,0.00
2013-5-17,71.3,63.2,59.1,61.3,53.0,39.6,93,71,38,29.92,29.86,7,2,12,0.01
2013-5-18,82.7,70.9,59.3,66.7,61.3,56.7,94,74,51,29.90,29.73,9,2,22,0.01
2013-5-19,76.2,67.8,61.6,65.4,62.4,59.7,97,84,64,29.73,29.55,11,2,20,0.58
2013-5-20,68.8,62.3,60.0,61.3,57.4,53.2,99,85,59,29.57,29.48,10,2,21,0.09
2013-5-21,60.0,54.2,47.7,57.4,52.9,46.9,99,95,84,29.76,29.49,7,2,13,0.67
2013-5-22,53.9,48.8,45.7,49.6,46.4,44.0,97,92,74,30.06,29.76,13,4,26,0.27
2013-5-23,64.5,53.5,43.3,44.1,39.4,31.7,92,62,31,30.32,30.06,8,1,16,0.01
2013-5-24,69.1,55.1,43.7,54.9,42.0,33.2,85,64,31,30.32,30.12,10,1,18,0.12
2013-5-25,58.2,54.9,52.0,52.4,49.6,46.9,88,82,69,30.17,30.09,7,2,17,0.00
2013-5-26,54.2,51.7,48.6,50.4,48.1,45.1,93,88,81,30.17,30.00,6,2,13,0.03
2013-5-27,61.5,56.0,51.8,55.3,52.6,49.8,98,88,79,30.03,29.81,4,1,7,0.00
2013-5-28,67.1,58.3,54.3,57.8,54.9,53.2,97,89,72,29.81,29.70,3,0,5,0.00
2013-5-29,80.4,64.1,53.4,70.1,60.2,52.6,100,88,62,29.81,29.54,9,1,22,1.13
2013-5-30,77.1,67.9,62.9,63.6,60.5,57.6,96,78,53,29.59,29.46,12,3,22,0.13
2013-5-31,67.1,62.2,57.1,60.7,52.9,49.7,92,72,57,29.54,29.43,11,4,25,0.11